PACCTY Weather Reports


Display with metric or nautical units.
time (UTC)temp
F
wind
direction
speed
MPH
gust
MPH
rain 1hr
in
rain 24hr
in
rain mn
in
humidity
%
barometer
mb
20260831164829 58 0 0.0 0.0 0.00 0.00 0.00 97 1010.2
20260831164329 58 0 0.0 0.0 0.00 0.00 0.00 97 1010.1
20260831163830 58 0 0.0 0.0 0.00 0.00 0.00 97 1010.3
20260831163330 57 0 0.0 0.0 0.00 0.00 0.00 98 1010.4
20260831162830 57 0 0.0 0.0 0.00 0.00 0.00 98 1010.5
20260831162329 57 0 0.0 0.0 0.00 0.00 0.00 98 1010.6
20260831161829 56 0 0.0 0.0 0.00 0.00 0.00 98 1010.5
20260831160829 56 0 0.0 0.0 0.00 0.00 0.00 99 1010.5
20260831160329 55 0 0.0 0.0 0.00 0.00 0.00 99 1010.6
20260831155831 55 0 0.0 0.0 0.00 0.00 0.00 99 1010.7
20260831155330 55 0 0.0 0.0 0.00 0.00 0.00 99 1010.8
20260831154829 54 0 0.0 0.0 0.00 0.00 0.00 99 1010.8
20260831153829 54 0 0.0 0.0 0.00 0.00 0.00 99 1010.8
20260831153329 54 0 0.0 0.0 0.00 0.00 0.00 99 1010.9
20260831152829 54 0 0.0 0.0 0.00 0.00 0.00 99 1010.9
20260831151829 53 0 0.0 0.0 0.00 0.00 0.00 99 1010.9
20260831151331 53 0 0.0 0.0 0.00 0.00 0.00 99 1011.0
20260831150829 53 0 0.0 0.0 0.00 0.00 0.00 99 1010.9
20260831150330 53 0 0.0 0.0 0.00 0.00 0.00 99 1010.9
20260831145830 53 0 0.0 0.0 0.00 0.00 0.00 99 1010.9
20260831145330 53 0 0.0 0.0 0.00 0.00 0.00 99 1010.8
20260831144830 53 0 0.0 0.0 0.00 0.00 0.00 99 1010.8
20260831144335 53 0 0.0 0.0 0.00 0.00 0.00 99 1010.7
20260831143829 53 0 0.0 0.0 0.00 0.00 0.00 99 1010.6
20260831142831 53 0 0.0 0.0 0.00 0.00 0.00 99 1010.8
20260831142330 53 0 0.0 0.0 0.00 0.00 0.00 99 1010.7
20260831141829 53 0 0.0 0.0 0.00 0.00 0.00 99 1010.7
20260831140830 53 0 0.0 0.0 0.00 0.00 0.00 99 1010.5
20260831140329 53 0 0.0 0.0 0.00 0.00 0.00 99 1010.6
20260831135830 53 0 0.0 0.0 0.00 0.00 0.00 99 1010.7
20260831135329 53 0 0.0 0.0 0.00 0.00 0.00 99 1010.7
20260831134829 53 0 0.0 0.0 0.00 0.00 0.00 99 1010.7
20260831133830 53 0 0.0 0.0 0.00 0.00 0.00 99 1010.8
20260831133329 53 0 0.0 0.0 0.00 0.00 0.00 99 1010.9
20260831132831 53 0 0.0 0.0 0.00 0.00 0.00 99 1010.9
20260831132329 53 0 0.0 0.0 0.00 0.00 0.00 99 1011.0
20260831131828 53 0 0.0 0.0 0.00 0.00 0.00 99 1010.9
20260831130828 53 0 0.0 0.0 0.00 0.00 0.00 99 1010.9
20260831130328 53 0 0.0 0.0 0.00 0.00 0.00 99 1010.9
20260831125828 53 0 0.0 0.0 0.00 0.00 0.00 99 1010.9
20260831125328 53 0 0.0 0.0 0.00 0.00 0.00 99 1010.9
20260831124829 53 0 0.0 0.0 0.00 0.00 0.00 99 1010.9
20260831123829 53 0 0.0 0.0 0.00 0.00 0.00 99 1011.0
20260831122830 54 0 0.0 0.0 0.00 0.00 0.00 99 1011.0
20260831122329 54 0 0.0 0.0 0.00 0.00 0.00 99 1011.4
20260831121334 54 0 0.0 0.0 0.00 0.00 0.00 99 1011.4
20260831120829 54 0 0.0 5.0 0.00 0.00 0.00 99 1011.5
20260831115829 54 0 1.0 1.0 0.00 0.00 0.00 99 1011.7
20260831115329 54 0 0.0 0.0 0.00 0.00 0.00 99 1011.6
20260831114436 54 0 0.0 0.0 0.00 0.00 0.00 99 1011.5
20260831114328 54 0 0.0 0.0 0.00 0.00 0.00 99 1011.5
20260831113828 54 0 0.0 0.0 0.00 0.00 0.00 99 1011.6
20260831113329 54 0 0.0 0.0 0.00 0.00 0.00 99 1011.5
20260831112830 54 0 0.0 0.0 0.00 0.00 0.00 99 1011.6
20260831112329 54 0 0.0 0.0 0.00 0.00 0.00 98 1011.7
20260831111828 54 0 0.0 0.0 0.00 0.00 0.00 98 1011.6
20260831111330 54 0 0.0 0.0 0.00 0.00 0.00 98 1011.8
20260831110828 54 0 0.0 0.0 0.00 0.00 0.00 98 1011.8
20260831110328 54 0 0.0 0.0 0.00 0.00 0.00 98 1011.8
20260831105830 54 0 0.0 0.0 0.00 0.00 0.00 98 1011.8
20260831105332 54 0 0.0 0.0 0.00 0.00 0.00 98 1011.8
20260831103828 54 0 0.0 2.0 0.00 0.00 0.00 98 1011.9
20260831103329 54 0 0.0 2.0 0.00 0.00 0.00 98 1011.9
20260831102829 54 327 0.0 2.0 0.00 0.00 0.00 98 1011.9
20260831102330 54 0 0.0 0.0 0.00 0.00 0.00 98 1012.0
20260831100829 55 327 0.0 3.0 0.00 0.00 0.00 98 1012.1
20260831100329 55 0 0.0 0.0 0.00 0.00 0.00 98 1012.0
20260831095828 55 0 0.0 0.0 0.00 0.00 0.00 98 1012.1
20260831095328 55 0 0.0 0.0 0.00 0.00 0.00 98 1012.1
20260831093829 55 0 0.0 0.0 0.00 0.00 0.00 98 1012.2
20260831092830 55 0 0.0 0.0 0.00 0.00 0.00 98 1012.4
20260831092329 55 0 0.0 0.0 0.00 0.00 0.00 97 1012.5
20260831090329 55 0 0.0 0.0 0.00 0.00 0.00 97 1012.8
20260831085829 55 0 0.0 0.0 0.00 0.00 0.00 97 1012.9
20260831085329 56 0 0.0 0.0 0.00 0.00 0.00 97 1012.9
20260831084829 56 0 0.0 0.0 0.00 0.00 0.00 97 1012.9
20260831083829 56 0 0.0 0.0 0.00 0.00 0.00 97 1013.0
20260831083329 56 0 0.0 0.0 0.00 0.00 0.00 97 1013.0
20260831082830 56 0 0.0 0.0 0.00 0.00 0.00 96 1013.0
20260831082329 56 0 0.0 0.0 0.00 0.00 0.00 96 1013.1
20260831080828 56 0 0.0 0.0 0.00 0.00 0.00 96 1013.2
20260831075830 56 0 0.0 0.0 0.00 0.00 0.00 96 1013.2
20260831075329 56 0 0.0 0.0 0.00 0.00 0.00 96 1013.3
20260831074829 56 0 0.0 0.0 0.00 0.00 0.00 96 1013.4
20260831074335 57 0 0.0 0.0 0.00 0.00 0.00 96 1013.3
20260831073828 57 0 0.0 0.0 0.00 0.00 0.00 96 1013.4
20260831072829 57 0 0.0 0.0 0.00 0.00 0.00 95 1013.5
20260831072329 57 0 0.0 0.0 0.00 0.00 0.00 95 1013.5
20260831070833 57 0 0.0 0.0 0.00 0.00 0.00 95 1013.6
20260831070328 57 0 0.0 0.0 0.00 0.00 0.00 95 1013.6
20260831065829 57 0 0.0 0.0 0.00 0.00 0.00 95 1013.6
20260831065334 57 0 0.0 0.0 0.00 0.00 0.00 95 1013.7
20260831064830 58 0 0.0 0.0 0.00 0.00 0.00 94 1013.8
20260831063829 58 0 0.0 0.0 0.00 0.00 0.00 94 1013.9
20260831062328 58 0 0.0 0.0 0.00 0.00 0.00 94 1013.9
20260831061828 58 0 0.0 0.0 0.00 0.00 0.00 94 1014.0
20260831055830 58 0 0.0 0.0 0.00 0.00 0.00 93 1014.2
20260831055329 58 0 0.0 0.0 0.00 0.00 0.00 93 1014.2
20260831054830 58 0 0.0 0.0 0.00 0.00 0.00 93 1014.3
20260831054335 58 0 0.0 0.0 0.00 0.00 0.00 93 1014.4
20260831053829 58 0 0.0 0.0 0.00 0.00 0.00 93 1014.4
20260831053328 59 0 0.0 0.0 0.00 0.00 0.00 92 1014.4
20260831052830 59 0 0.0 0.0 0.00 0.00 0.00 92 1014.4
20260831052331 59 0 0.0 0.0 0.00 0.00 0.00 92 1014.4
20260831051829 59 0 0.0 0.0 0.00 0.00 0.00 92 1014.6
20260831051329 59 0 0.0 0.0 0.00 0.00 0.00 92 1014.7
20260831050829 59 0 0.0 0.0 0.00 0.00 0.00 91 1014.7
20260831050329 59 0 0.0 0.0 0.00 0.00 0.00 91 1014.8
20260831045828 59 0 0.0 0.0 0.00 0.00 0.00 91 1014.8
20260831045329 60 0 0.0 0.0 0.00 0.00 0.00 90 1014.8
20260831044830 60 0 0.0 0.0 0.00 0.00 0.00 89 1014.8
20260831044336 60 0 0.0 0.0 0.00 0.00 0.00 88 1014.9
20260831043828 61 0 0.0 0.0 0.00 0.00 0.00 88 1014.8
20260831042830 61 0 0.0 0.0 0.00 0.00 0.00 86 1014.9
20260831042330 61 0 0.0 0.0 0.00 0.00 0.00 86 1015.0
20260831041828 61 0 0.0 0.0 0.00 0.00 0.00 85 1015.0
20260831041333 61 0 0.0 0.0 0.00 0.00 0.00 85 1015.0
20260831035830 61 0 0.0 0.0 0.00 0.00 0.00 85 1015.0
20260831034830 62 0 0.0 0.0 0.00 0.00 0.00 84 1015.0
20260831033828 62 0 0.0 0.0 0.00 0.00 0.00 84 1014.8
20260831033329 62 0 0.0 0.0 0.00 0.00 0.00 84 1014.8
20260831032830 62 0 0.0 0.0 0.00 0.00 0.00 83 1014.8
20260831031828 62 0 0.0 0.0 0.00 0.00 0.00 83 1014.9
20260831030831 62 0 0.0 0.0 0.00 0.00 0.00 83 1014.9
20260831030330 62 0 0.0 0.0 0.00 0.00 0.00 83 1014.9
20260831025830 62 0 0.0 0.0 0.00 0.00 0.00 83 1014.9
20260831024829 62 0 0.0 0.0 0.00 0.00 0.00 82 1014.9
20260831023828 62 0 0.0 0.0 0.00 0.00 0.00 82 1015.0
20260831023329 62 0 0.0 0.0 0.00 0.00 0.00 83 1015.0
20260831022831 62 0 0.0 0.0 0.00 0.00 0.00 82 1015.1
20260831022329 62 0 0.0 0.0 0.00 0.00 0.00 82 1015.1
20260831021828 63 0 0.0 0.0 0.00 0.00 0.00 82 1014.9
20260831021333 63 0 0.0 0.0 0.00 0.00 0.00 82 1015.2
20260831020828 63 0 0.0 0.0 0.00 0.00 0.00 81 1015.2
20260831015830 63 0 0.0 0.0 0.00 0.00 0.00 81 1015.3
20260831015328 63 0 0.0 0.0 0.00 0.00 0.00 81 1015.3
20260831014829 63 0 0.0 0.0 0.00 0.00 0.00 81 1015.2
20260831013828 63 338 3.0 5.0 0.00 0.00 0.00 80 1015.5
20260831013328 63 326 3.0 5.0 0.00 0.00 0.00 80 1015.6
20260831012830 63 327 4.0 5.0 0.00 0.00 0.00 80 1015.6
20260831012329 63 323 3.0 5.0 0.00 0.00 0.00 79 1015.7
20260831011328 63 326 4.0 6.0 0.00 0.00 0.00 78 1015.7
20260831010830 63 323 4.0 6.0 0.00 0.00 0.00 79 1015.8
20260831010330 63 333 4.0 7.0 0.00 0.00 0.00 79 1015.9
20260831005830 63 331 5.0 7.0 0.00 0.00 0.00 79 1016.0
20260831005329 63 331 5.0 7.0 0.00 0.00 0.00 79 1016.1
20260831004829 63 327 5.0 7.0 0.00 0.00 0.00 80 1016.2
20260831004327 63 330 5.0 7.0 0.00 0.00 0.00 79 1016.3
20260831003828 63 320 5.0 8.0 0.00 0.00 0.00 79 1016.4
20260831002830 63 327 5.0 8.0 0.00 0.00 0.00 78 1016.4
20260831002329 63 324 6.0 8.0 0.00 0.00 0.00 78 1016.5
20260831001830 63 327 6.0 7.0 0.00 0.00 0.00 77 1016.4
20260831001332 64 331 6.0 7.0 0.00 0.00 0.00 78 1016.5
20260831000829 64 333 6.0 7.0 0.00 0.00 0.00 77 1016.5
20260831000328 64 331 6.0 7.0 0.00 0.00 0.00 77 1016.6
20260830235829 64 334 6.0 7.0 0.00 0.00 0.00 77 1016.6
20260830235329 64 334 5.0 7.0 0.00 0.00 0.00 76 1016.7
20260830234327 64 331 5.0 8.0 0.00 0.00 0.00 75 1016.8
20260830233828 65 317 5.0 8.0 0.00 0.00 0.00 75 1016.8
20260830232831 65 329 5.0 7.0 0.00 0.00 0.00 74 1016.9
20260830231829 65 326 5.0 7.0 0.00 0.00 0.00 75 1017.0
20260830230328 65 0 5.0 9.0 0.00 0.00 0.00 76 1017.1
20260830225830 65 317 6.0 9.0 0.00 0.00 0.00 75 1017.3
20260830225329 65 329 6.0 14.0 0.00 0.00 0.00 75 1017.4
20260830224828 65 340 6.0 14.0 0.00 0.00 0.00 74 1017.5
20260830223828 66 326 5.0 8.0 0.00 0.00 0.00 73 1017.5
20260830222829 66 331 5.0 8.0 0.00 0.00 0.00 73 1017.7
20260830222328 66 330 5.0 7.0 0.00 0.00 0.00 73 1017.8
20260830221827 66 347 5.0 10.0 0.00 0.00 0.00 71 1017.8
20260830220829 66 12 5.0 8.0 0.00 0.00 0.00 72 1018.0
20260830220328 66 319 5.0 8.0 0.00 0.00 0.00 73 1018.0
20260830215830 66 322 5.0 10.0 0.00 0.00 0.00 72 1018.0
20260830214828 66 357 6.0 10.0 0.00 0.00 0.00 71 1018.2
20260830213827 66 12 5.0 7.0 0.00 0.00 0.00 71 1018.2
20260830212829 66 341 5.0 7.0 0.00 0.00 0.00 71 1018.3
20260830212331 66 327 4.0 7.0 0.00 0.00 0.00 73 1018.3
20260830211830 66 7 5.0 8.0 0.00 0.00 0.00 72 1018.4
20260830210829 66 327 5.0 9.0 0.00 0.00 0.00 71 1018.4
20260830205828 67 357 4.0 9.0 0.00 0.00 0.00 73 1018.5
20260830205328 67 317 5.0 8.0 0.00 0.00 0.00 71 1018.5
20260830204829 67 326 5.0 8.0 0.00 0.00 0.00 73 1018.6
20260830204327 66 319 4.0 8.0 0.00 0.00 0.00 72 1018.6
20260830203828 66 5 6.0 7.0 0.00 0.00 0.00 70 1018.6
20260830202330 66 18 5.0 8.0 0.00 0.00 0.00 71 1018.8
20260830201827 66 347 5.0 8.0 0.00 0.00 0.00 70 1018.8
20260830201327 66 330 4.0 7.0 0.00 0.00 0.00 73 1018.9
20260830195329 66 309 2.0 6.0 0.00 0.00 0.00 70 1018.9
20260830194829 66 327 4.0 5.0 0.00 0.00 0.00 69 1018.9
20260830194327 66 333 4.0 5.0 0.00 0.00 0.00 68 1019.0
20260830193328 67 12 4.0 9.0 0.00 0.00 0.00 68 1019.1
20260830192829 67 310 4.0 7.0 0.00 0.00 0.00 66 1019.0
20260830191830 66 298 3.0 5.0 0.00 0.00 0.00 68 1019.3
20260830185328 68 170 3.0 7.0 0.00 0.00 0.00 68 1019.4
20260830184828 68 208 1.0 4.0 0.00 0.00 0.00 65 1019.4
20260830184328 68 295 1.0 6.0 0.00 0.00 0.00 64 1019.4
20260830183829 68 306 1.0 6.0 0.00 0.00 0.00 62 1019.4
20260830183329 68 232 0.0 6.0 0.00 0.00 0.00 64 1019.4
20260830182329 67 141 2.0 8.0 0.00 0.00 0.00 62 1019.5
20260830181832 67 298 1.0 8.0 0.00 0.00 0.00 64 1019.6
20260830180328 65 201 3.0 6.0 0.00 0.00 0.00 66 1019.7
20260830174327 62 0 3.0 4.0 0.00 0.00 0.00 80 1019.7
20260830173828 61 347 0.0 4.0 0.00 0.00 0.00 82 1019.7
20260830173557 60 345 0.0 3.0 0.00 0.00 0.00 85 1019.7
20260830173327 60 345 0.0 3.0 0.00 0.00 0.00 85 1019.7
20260830172328 59 0 0.0 0.0 0.00 0.00 0.00 91 1019.7
20260830171829 58 0 0.0 0.0 0.00 0.00 0.00 91 1019.8
20260830170330 56 0 0.0 0.0 0.00 0.00 0.00 96 1019.7